This is the latest recevied weather packets stored in our database for station/object KG4QWI. If no packets are shown the sender has not sent any weather packets the latest 10 day(s).
| Time | Temp. | Humidity | Pressure | Rain* | Wind** | Luminosity | Snow |
|---|---|---|---|---|---|---|---|
| 1777322442 | 23.89° C | 56% | 1016.7 hPa | 0 mm | - | 51 W/m² | - |
| 1777321846 | 23.89° C | 57% | 1016.9 hPa | 0 mm | - | 70 W/m² | - |
| 1777321540 | 23.89° C | 56% | 1017.1 hPa | 0 mm | - | 84 W/m² | - |
| 1777320051 | 23.33° C | 55% | 1017.5 hPa | 0 mm | - | 90 W/m² | - |
| 1777319740 | 23.33° C | 55% | 1017.5 hPa | 0 mm | - | 98 W/m² | - |
| 1777318839 | 23.33° C | 53% | 1017.6 hPa | 0 mm | - | 190 W/m² | - |
| 1777318253 | 22.78° C | 53% | 1017.9 hPa | 0 mm | - | 211 W/m² | - |
| 1777317039 | 22.78° C | 53% | 1017.8 hPa | 0 mm | - | 207 W/m² | - |
| 1777316488 | 22.78° C | 53% | 1017.9 hPa | 0 mm | - | 230 W/m² | - |
| 1777316143 | 22.78° C | 52% | 1017.9 hPa | 0 mm | - | 246 W/m² | - |
| 1777315240 | 22.78° C | 54% | 1017.7 hPa | 0 mm | - | 272 W/m² | - |
| 1777313749 | 23.33° C | 54% | 1018 hPa | 0 mm | - | 211 W/m² | - |
| 1777311946 | 22.78° C | 56% | 1018.5 hPa | 0 mm | - | 308 W/m² | - |
| 1777309838 | 22.78° C | 57% | 1019.1 hPa | 0 mm | - | 814 W/m² | - |
| 1777309258 | 22.78° C | 62% | 1019.2 hPa | 0 mm | - | 854 W/m² | - |
| 1777306238 | 21.11° C | 62% | 1019.9 hPa | 0 mm | - | 853 W/m² | - |
| 1777305939 | 21.11° C | 61% | 1020.1 hPa | 0 mm | - | 788 W/m² | - |
| 1777305649 | 21.11° C | 64% | 1020 hPa | 0 mm | - | 791 W/m² | - |
| 1777304438 | 20.56° C | 66% | 1020 hPa | 0 mm | - | 830 W/m² | - |
| 1777303539 | 20° C | 65% | 1020.1 hPa | 0 mm | - | 835 W/m² | - |
| 1777302638 | 20° C | 68% | 1020 hPa | 0 mm | - | 803 W/m² | - |
| 1777301439 | 19.44° C | 70% | 1020 hPa | 0 mm | - | 768 W/m² | - |
| 1777301143 | 18.89° C | 71% | 1020 hPa | 0 mm | - | 765 W/m² | - |
| 1777300542 | 18.33° C | 69% | 1019.9 hPa | 0 mm | - | 714 W/m² | - |
| 1777297237 | 16.67° C | 76% | 1019.7 hPa | 0 mm | - | 519 W/m² | - |
* Rain latest hour (hover to see other rain measurements)
** Current wind speed in m/s (hover to see current wind gust speed)